EW5195 Weather Reports


time (UTC)temp
C
wind
direction
speed
KPH
gust
KPH
rain 1hr
cm
rain 24hr
cm
rain mn
cm
humidity
%
barometer
mb
20260505213051 26 150 1.6 17.7 0.00 0.00 0.00 41 1012.8
20260505211551 27 0 1.6 17.7 0.00 0.00 0.00 40 1012.8
20260505210053 27 0 0.0 16.1 0.00 0.00 0.00 40 1012.8
20260505204601 27 76 0.0 11.3 0.00 0.00 0.00 38 1012.7
20260505203106 28 0 1.6 12.9 0.00 0.00 0.00 35 1012.7
20260505201555 28 257 3.2 14.5 0.00 0.00 0.00 34 1012.7
20260505200054 28 0 0.0 16.1 0.00 0.00 0.00 35 1012.8
20260505194602 28 0 0.0 16.1 0.00 0.00 0.00 36 1013.0
20260505193056 28 241 1.6 14.5 0.00 0.00 0.00 35 1013.1
20260505191554 28 246 1.6 16.1 0.00 0.00 0.00 34 1013.3
20260505190055 28 154 1.6 16.1 0.00 0.00 0.00 39 1013.6
20260505184557 28 146 0.0 22.5 0.00 0.00 0.00 34 1013.8
20260505183058 28 186 3.2 14.5 0.00 0.00 0.00 33 1014.0
20260505181553 27 174 0.0 16.1 0.00 0.00 0.00 40 1014.1
20260505180057 27 111 3.2 19.3 0.00 0.00 0.00 36 1014.5
20260505174556 27 180 1.6 11.3 0.00 0.00 0.00 41 1014.6
20260505173053 27 0 1.6 14.5 0.00 0.00 0.00 45 1014.9
20260505171553 26 245 0.0 11.3 0.00 0.00 0.00 48 1015.0
20260505170053 26 167 0.0 9.7 0.00 0.00 0.00 49 1015.1
20260505164600 26 173 1.6 12.9 0.00 0.00 0.00 49 1015.2
20260505163054 26 0 0.0 6.4 0.00 0.00 0.00 50 1015.4
20260505161558 25 0 0.0 9.7 0.00 0.00 0.00 50 1015.6
20260505153108 23 263 1.6 9.7 0.00 0.00 0.00 56 1016.1
20260505151554 23 212 1.6 8.0 0.00 0.00 0.00 54 1016.0
20260505124601 17 0 0.0 3.2 0.00 0.00 0.00 72 1016.1
20260505123057 17 0 0.0 8.0 0.00 0.00 0.00 73 1016.0
20260505121553 16 260 0.0 6.4 0.00 0.00 0.00 75 1015.9
20260505120105 16 0 0.0 8.0 0.00 0.00 0.00 76 1015.8
20260505114555 15 0 0.0 9.7 0.00 0.00 0.00 80 1015.7
20260505113111 14 0 0.0 4.8 0.00 0.00 0.00 81 1015.6
20260505111554 13 0 0.0 4.8 0.00 0.00 0.00 83 1015.5
20260505101550 13 0 0.0 4.8 0.00 0.00 0.00 81 1015.3
20260505100051 13 0 0.0 1.6 0.00 0.00 0.00 80 1015.3
20260505094552 14 0 0.0 6.4 0.00 0.00 0.00 80 1015.1
20260505093102 14 0 0.0 4.8 0.00 0.00 0.00 79 1015.0
20260505091556 15 0 0.0 4.8 0.00 0.00 0.00 78 1015.0
20260505090055 15 0 0.0 4.8 0.00 0.00 0.00 77 1014.9
20260505084557 15 0 0.0 1.6 0.00 0.00 0.00 77 1014.8
20260505083055 15 0 0.0 1.6 0.00 0.00 0.00 76 1014.7
20260505081554 15 0 0.0 4.8 0.00 0.00 0.00 76 1015.0
20260505080108 15 0 0.0 8.0 0.00 0.00 0.00 75 1014.8
20260505074551 16 185 0.0 12.9 0.00 0.00 0.00 74 1014.7
20260505073100 16 0 0.0 6.4 0.00 0.00 0.00 74 1014.6
20260505071552 16 0 0.0 4.8 0.00 0.00 0.00 74 1014.4
20260505070055 16 0 0.0 6.4 0.00 0.00 0.00 74 1014.4
20260505064600 16 169 0.0 4.8 0.00 0.00 0.00 73 1014.4
20260505063103 16 0 0.0 4.8 0.00 0.00 0.00 71 1014.2
20260505061606 16 0 0.0 11.3 0.00 0.00 0.00 70 1014.5
20260505060058 17 187 0.0 8.0 0.00 0.00 0.00 69 1014.4
20260505054554 17 0 0.0 12.9 0.00 0.00 0.00 69 1014.4
20260505053113 17 0 0.0 14.5 0.00 0.00 0.00 68 1014.3
20260505051555 17 0 0.0 11.3 0.00 0.00 0.00 68 1014.4
20260505050113 17 160 1.6 6.4 0.00 0.00 0.00 67 1014.5
20260505041600 17 0 1.6 11.3 0.00 0.00 0.00 62 1014.2
20260505040057 17 0 0.0 8.0 0.00 0.00 0.00 62 1014.1
20260505034616 17 0 0.0 4.8 0.00 0.00 0.00 62 1014.0
20260505033108 16 0 0.0 3.2 0.00 0.00 0.00 65 1014.0
20260505031557 16 0 0.0 1.6 0.00 0.00 0.00 67 1013.8
20260505024553 16 0 0.0 0.0 0.00 0.00 0.00 66 1013.9
20260505023100 16 0 0.0 0.0 0.00 0.00 0.00 64 1013.7
20260505021602 17 0 0.0 0.0 0.00 0.00 0.00 62 1013.6
20260505020100 17 0 0.0 0.0 0.00 0.00 0.00 62 1013.4
20260505014553 17 0 0.0 0.0 0.00 0.00 0.00 61 1013.4
20260505013053 18 0 0.0 0.0 0.00 0.00 0.00 59 1013.4
20260505011610 18 0 0.0 0.0 0.00 0.00 0.00 59 1013.0
20260505010056 18 0 0.0 0.0 0.00 0.00 0.00 58 1012.8
20260505004559 18 0 0.0 0.0 0.00 0.00 0.00 55 1012.8
20260505003058 19 0 0.0 0.0 0.00 0.00 0.00 54 1012.7
20260505001608 20 0 0.0 0.0 0.00 0.00 0.00 50 1012.9
20260505000108 20 0 0.0 0.0 0.00 0.00 0.00 51 1012.8
20260504234558 21 0 0.0 0.0 0.00 0.00 0.00 45 1012.7
20260504233110 22 0 0.0 0.0 0.00 0.00 0.00 42 1012.6
20260504231556 22 0 0.0 0.0 0.00 0.00 0.00 40 1012.4
20260504230054 23 0 0.0 0.0 0.00 0.00 0.00 40 1012.5
20260504224553 23 0 0.0 6.4 0.00 0.00 0.00 38 1012.6
20260504223055 23 123 0.0 8.0 0.00 0.00 0.00 37 1012.4
20260504221555 23 0 0.0 6.4 0.00 0.00 0.00 37 1012.4
20260504220053 23 0 0.0 8.0 0.00 0.00 0.00 37 1012.4
20260504214557 23 0 0.0 6.4 0.00 0.00 0.00 36 1012.5